Location: Bakov nad Jizerou
(50.4784°N, 14.9394°E)
Time: 05:51:46
(UTC+00:00)

NOSS 3-1 (C) - Pass Details

Date: 16 June 2021
Orbit: 724 x 1485 km, 63.4° (Epoch: 20 July)

Event Time Altitude Azimuth Distance (km) Brightness Sun altitude
Exits shadow 23:09:32 23° 157° (SSE) 1,677 4.2 -16.1°
Maximum altitude 23:11:52 32° 115° (ESE) 1,431 4.2 -16.1°
Drops below altitude 10° 23:17:12 10° 55° (NE) 2,689 6.3 -16.1°
Sets 23:20:15 0° 47° (NE) 3,769 7.3 -16.0°
